Weather History for LIMH - November, 2011

Change the Weather History Date:

Friday, November 25, 2011

  Actual Average Record
Temperature  
Mean Temperature 24 °F -  
Max Temperature 26 °F 20 °F 30 °F (2004)
Min Temperature 23 °F 10 °F -4 °F (2005)
Degree Days  
Heating Degree Days 40    
Moisture  
Dew Point -12 °F    
Average Humidity 20    
Maximum Humidity 43    
Minimum Humidity 4    
Precipitation  
Precipitation 0.00 in - - ()
Sea Level Pressure  
Sea Level Pressure 30.45 in    
Wind  
Wind Speed 9 mph ()    
Max Wind Speed 16 mph    
Max Gust Speed -    
Visibility 8.2 miles    
Events      
Averages and records for this station are not official NWS values.
T = Trace of Precipitation, MM = Missing Value Source: Averaged Metar Reports

Daily Weather History Graph

Daily Weather History Graph

Search for Another Location

Airport or City:

Trip Planner

Search our weather history database for the weather conditions in past years. The results will help you decide how hot, cold, wet, or windy it might be!

Date:

Astronomy

Nov. 25, 2011 Rise Set
Actual Time 7:42 AM CET 4:49 PM CET
Civil Twilight 7:09 AM CET 5:22 PM CET
Nautical Twilight 6:32 AM CET 5:59 PM CET
Astronomical Twilight 5:56 AM CET 6:35 PM CET
Moon 7:54 AM CET (11/25) 4:57 PM CET (11/25)
Length of Visible Light 10h 13m
Length of Day
9h 07m
New Moon, 0% of the Moon is Illuminated
Nov 25
New Moon
Dec 2
First Quarter
Dec 10
Full
Dec 18
Last Quarter
Dec 24
New

Hourly Weather History & Observations

Time (CET) Temp. Windchill Dew Point Humidity Pressure Visibility Wind Dir Wind Speed Gust Speed Precip Events Conditions
12:55 AM 24.8 °F 14.6 °F -22.0 °F 12% 30.48 in - East 10.4 mph - N/A   Clear
1:00 AM 25 °F - -22 °F 4%  in 6 mi East 10.4 mph - -  
1:55 AM 26.6 °F 17.5 °F -22.0 °F 11% 30.45 in - ENE 9.2 mph - N/A   Clear
2:55 AM 26.6 °F 18.2 °F -22.0 °F 11% 30.45 in - ENE 8.1 mph - N/A   Clear
3:55 AM 26.6 °F 19.1 °F -22.0 °F 11% 30.45 in - ENE 6.9 mph - N/A   Clear
4:55 AM 26.6 °F 18.2 °F -22.0 °F 11% 30.42 in - ENE 8.1 mph - N/A   Clear
5:55 AM 26.6 °F 19.1 °F -22.0 °F 11% 30.45 in - ENE 6.9 mph - N/A   Clear
6:55 AM 26.6 °F 18.2 °F -22.0 °F 11% 30.45 in - ENE 8.1 mph - N/A   Clear
7:00 AM 27 °F - -22 °F 4%  in 9 mi ENE 8.1 mph - -  
10:00 AM 26 °F - -22 °F 4%  in 47 mi ENE 8.1 mph - -  
10:55 AM 26.6 °F 19.1 °F -22.0 °F 11% 30.48 in - ENE 6.9 mph - N/A   Clear
11:55 AM 26.6 °F 18.2 °F -22.0 °F 11% 30.48 in - ENE 8.1 mph - N/A   Clear
12:55 PM 24.8 °F 16.1 °F -22.0 °F 12% 30.48 in - ENE 8.1 mph - N/A   Clear
1:55 PM 24.8 °F 16.1 °F -20.2 °F 13% 30.45 in - ENE 8.1 mph - N/A   Clear
2:55 PM 24.8 °F 14.6 °F -7.6 °F 24% 30.45 in - ENE 10.4 mph - N/A   Clear
3:55 PM 24.8 °F 14.6 °F -5.8 °F 26% 30.42 in - ENE 10.4 mph - N/A   Clear
4:00 PM 24 °F - -6 °F 14%  in 47 mi ENE 10.4 mph - -   Clear
5:55 PM 23.0 °F 9.6 °F -4.0 °F 31% 30.45 in - ENE 16.1 mph - N/A   Clear
6:55 PM 24.8 °F 12.4 °F -0.4 °F 34% 30.48 in - NE 15.0 mph - N/A   Clear
7:00 PM 24 °F - 0 °F 21%  in 12 mi NE 15.0 mph - -  
7:55 PM 24.8 °F 12.9 °F 1.4 °F 36% 30.42 in - NE 13.8 mph - N/A   Clear
8:55 PM 23.0 °F 9.6 °F -0.4 °F 36% 30.42 in - ENE 16.1 mph - N/A   Clear
9:55 PM 24.8 °F 13.4 °F 3.2 °F 40% 30.45 in - ENE 12.7 mph - N/A   Clear
10:00 PM 25 °F - 4 °F 26%  in 6 mi ENE 12.7 mph - -  
10:55 PM 24.8 °F 15.3 °F 5.0 °F 43% 30.42 in - ENE 9.2 mph - N/A   Clear
11:55 PM 24.8 °F 14.6 °F 5.0 °F 43% 30.45 in - NE 10.4 mph - N/A   Clear